Left ArrowRight Arrow

44.31136, -96.79839

Hourly Observations for June 17, 2024

Temp ( °F °C ) Dew Point ( °F °C ) Humidity (%) Winds ( mph kmh ) Pressure ( in mb ) Visibility ( mi km ) Precip ( " mm )
12:56 am 00:56 Mostly Cloudy with Light Rain 69 20.6 46 7.8 44 44 NE 7 11 29.78 1008 10 16 0.01 0.13
1:07 am 01:07 Cloudy with Nearby Thunderstorms 68 20 46 8 46 46 ENE 8 13 29.73 1007 10 16 0.01 0.13
1:22 am 01:22 Cloudy with Rain 64 18 50 10 59 59 NE 5 7 29.76 1008 10 16 0.01 0.25
1:56 am 01:56 Cloudy with Light Rain 61 16.1 54 12.2 78 78 ESE 7 11 29.80 1009 9 14 0.05 1.27
2:42 am 02:42 Cloudy with Thunderstorms 61 16 55 13 82 82 ESE 10 17 29.80 1009 8 13 0.05 1.27
2:56 am 02:56 Cloudy with Heavy Rain 59 15 54 12.2 83 83 ESE 15 24 29.83 1010 6 10 0.11 2.79
3:22 am 03:22 Cloudy with Nearby Thunderstorms 57 14 54 12 88 88 ENE 10 17 29.80 1009 7 11 0.14 3.56
3:42 am 03:42 Cloudy with Rain 55 13 54 12 94 94 NE 12 19 29.81 1010 10 16 0.18 4.57
3:56 am 03:56 Cloudy with Rain 56 13.3 54 12.2 93 93 ENE 7 11 29.84 1011 10 16 0.23 5.84
4:56 am 04:56 Cloudy with Thunderstorms 56 13.3 54 12.2 93 93 Calm 29.91 1013 5 8 0.19 4.83
5:15 am 05:15 Cloudy with Rain 55 13 54 12 94 94 E 8 13 29.88 1012 8 13 0.05 1.27
5:25 am 05:25 Cloudy with Rain 55 13 54 12 94 94 E 7 11 29.88 1012 8 13 0.08 2.03
5:56 am 05:56 Cloudy with Rain 56 13.3 53 11.7 90 90 E 9 15 29.89 1012 7 11 0.15 3.81
6:56 am 06:56 Cloudy with Rain 55 12.8 52 11.1 89 89 VRB 6 9 29.85 1011 8 13 0.12 3.05
7:56 am 07:56 Cloudy with Rain 55 12.8 52 11.1 89 89 E 15 24 29.81 1009 10 16 0.11 2.79
8:56 am 08:56 Cloudy with Rain 54 12.2 52 11.1 93 93 E 16 26 29.84 1011 7 11 0.10 2.54
9:56 am 09:56 Cloudy with Rain 54 12.2 53 11.7 97 97 ESE 17 28 29.82 1010 5 8 0.18 4.57
10:38 am 10:38 Cloudy with Rain 55 13 55 13 100 100 SE 18 30 29.78 1009 6 10 0.12 3.05
10:56 am 10:56 Cloudy with Rain 56 13.3 55 12.8 97 97 SE 13 20 29.83 1010 7 11 0.16 4.06
11:04 am 11:04 Cloudy with Rain 57 14 55 13 94 94 SE 17 28 29.76 1008 7 11 0.03 0.76
11:11 am 11:11 Cloudy with Rain 57 14 55 13 94 94 SE 15 24 29.76 1008 7 11 0.05 1.27
11:56 am 11:56 Cloudy with Light Rain 60 15.6 58 14.4 93 93 SSE 23 37 29.76 1008 10 16 0.11 2.79
12:15 pm 12:15 Cloudy with Light Rain 61 16 59 15 94 94 WNW 8 13 29.78 1009 8 13 0.01 0.25
12:24 pm 12:24 Cloudy with Rain 59 15 57 14 94 94 N 9 15 29.80 1009 8 13 0.03 0.76
12:56 pm 12:56 Cloudy with Rain 60 15.6 59 15 96 96 SE 15 24 29.78 1009 6 10 0.15 3.81
1:56 pm 13:56 Partly Cloudy 61 16.1 59 15 93 93 S 10 17 29.75 1007 10 16 0.02 0.51
2:12 pm 14:12 Mostly Cloudy 59 15 57 14 94 94 NNW 21 33 29.72 1006 10 16 0.00 0.00
2:56 pm 14:56 Cloudy 59 15 57 13.9 93 93 NNE 9 15 29.79 1009 9 14 0.00 0.00
3:06 pm 15:06 Cloudy 59 15 57 14 94 94 NE 7 11 29.74 1007 10 16 0.00 0.00
3:58 pm 15:58 Cloudy 61 16 57 14 88 88 NE 13 20 29.73 1007 10 16 0.00 0.00
4:14 pm 16:14 Cloudy 61 16 57 14 88 88 ENE 14 22 29.71 1006 7 11 0.00 0.00
4:37 pm 16:37 Cloudy 61 16 57 14 88 88 NE 13 20 29.71 1006 10 16 0.00 0.00
4:48 pm 16:48 Cloudy 63 17 59 15 88 88 ENE 14 22 29.71 1006 10 16 0.00 0.00
4:56 pm 16:56 Cloudy 61 16.1 58 14.4 90 90 NE 13 20 29.76 1008 10 16 0.00 0.00
5:56 pm 17:56 Cloudy 62 16.7 59 15 90 90 ENE 14 22 29.72 1007 10 16 0.00 0.00
6:33 pm 18:33 Cloudy with Light Rain 63 17 61 16 94 94 E 15 24 29.65 1004 10 16 0.01 0.13
6:56 pm 18:56 Cloudy with Nearby Thunderstorms 64 17.8 61 16.1 90 90 E 15 24 29.69 1006 10 16 0.01 0.13
7:31 pm 19:31 Cloudy with Strong Thunderstorms 63 17 63 17 100 100 VRB 6 9 29.63 1003 4 6 0.10 2.54
7:49 pm 19:49 Cloudy with Thunderstorms 64 18 63 17 94 94 E 17 28 29.61 1003 10 16 0.12 3.05
8:02 pm 20:02 Cloudy with Nearby Thunderstorms 64 18 63 17 94 94 E 12 19 29.61 1003 8 13 0.01 0.13
8:30 pm 20:30 Cloudy with Light Rain 64 18 63 17 94 94 E 15 24 29.59 1002 10 16 0.01 0.13
8:40 pm 20:40 Mostly Cloudy with Light Rain 64 18 63 17 94 94 E 14 22 29.59 1002 10 16 0.01 0.13
8:56 pm 20:56 Partly Cloudy 64 17.8 62 16.7 93 93 ESE 13 20 29.65 1004 10 16 0.01 0.13
9:56 pm 21:56 Cloudy 66 18.9 65 18.3 96 96 ESE 13 20 29.63 1003 10 16 0.00 0.00
10:56 pm 22:56 Mostly Cloudy 70 21.1 68 20 93 93 ESE 15 24 29.61 1003 10 16 0.01 0.13
11:56 pm 23:56 Cloudy 74 23.3 70 21.1 87 87 SSE 21 33 29.57 1001 10 16 0.00 0.00

Powered by Vaisala Xweather